Location: Calafia
(32.2685°N, 117.0209°W)
Time: 13:32:27
(UTC+00:00)

Daily predictions for brighter satellites

Satellite Brightness Start Highest point End
(mag) Time Altitude Azimuth Time Altitude Azimuth Time Altitude Azimuth
USA 238 DEB 4.5 12:10:11 35° N 12:10:11 35° N 12:14:11 10° NNE
USA 238 4.4 12:10:15 36° N 12:10:15 36° N 12:14:17 10° NNE
Cosmos 2034 Rocket 4.0 12:08:28 45° N 12:10:31 77° E 12:16:48 10° S
Chandra Rocket (1) 4.2 12:15:52 15° SSE 12:15:52 15° SSE 12:16:23 10° SE
Cosmos 1656 Rocket 4.3 12:19:27 10° S 12:24:40 52° ESE 12:29:54 10° NNE
Cosmos 1486 Rocket 4.3 12:23:25 10° S 12:28:40 66° ESE 12:33:54 10° NNE
Cosmos 1943 Rocket 4.0 12:34:38 16° N 12:34:38 16° N 12:35:54 10° N
CZ-2C R/B 4.2 12:27:28 10° SE 12:32:26 35° ENE 12:37:19 10° N
Tsikada Rocket 3.8 12:26:20 10° SSW 12:32:29 71° W 12:38:43 10° N
APEX 4.2 12:34:36 38° ESE 12:34:36 38° ESE 12:37:13 10° SE
Cosmos 841 Rocket 4.5 12:42:28 30° SW 12:42:28 30° SW 12:45:33 10° S
Cosmos 2082 Rocket 3.3 12:45:15 27° SW 12:45:15 27° SW 12:48:28 10° SSW
CZ-4B R/B 4.3 12:48:23 10° NNE 12:52:51 74° ESE 12:57:17 10° S
Okean 3 Rocket 4.1 12:51:45 10° S 12:56:11 61° E 13:00:40 10° NNE
Cosmos 1812 3.6 12:52:39 10° N 12:56:22 48° E 13:00:04 10° SSE
SL-19 R/B 4.3 12:51:22 10° SSE 12:57:02 86° ENE 13:02:37 10° NNW
Cosmos 1241 Rocket 4.5 12:53:49 19° NNW 12:58:25 81° ENE 13:04:37 10° SSE
Cosmos 921 Rocket 3.6 12:54:48 13° N 12:58:42 58° ENE 13:03:06 10° SSE
MOS 1-B Rocket 4.0 12:51:56 10° SSE 12:58:42 89° WSW 13:04:37 10° NNW
DELTA 2 R/B (1) 3.7 12:56:59 39° WNW 12:58:47 58° NNW 13:04:15 10° ENE
Cosmos 2098 Rocket 2.6 12:55:49 10° S 12:59:16 85° W 13:03:35 10° N
Envisat 2.9 12:55:26 10° N 13:00:30 72° WNW 13:05:32 10° SSW
CZ-3 R/B 3.9 12:50:17 10° SW 13:05:26 32° S 13:11:03 10° ESE
Cosmos 1766 Rocket 3.4 13:03:55 10° S 13:08:15 82° W 13:12:35 10° N
Meteor 2-3 Rocket 4.4 13:05:01 10° SW 13:09:52 29° WNW 13:14:47 10° NNW
CENTAUR R/B 4.0 13:12:13 16° NNW 13:12:13 16° NNW 13:15:39 10° N
Cosmos 1151 Rocket 3.2 13:08:02 10° N 13:12:25 73° E 13:16:46 10° SSE
Meteor 1-31 Rocket 2.8 13:10:55 10° N 13:14:45 57° WNW 13:18:35 10° SSW
Cosmos 1782 3.0 13:14:09 27° NW 13:15:48 43° W 13:19:33 10° SSW
Hubble Space Telescope 2.4 13:15:04 18° SW 13:16:49 23° SSW 13:20:06 10° SE
Cosmos 1862 3.2 13:13:04 10° SSW 13:16:57 63° W 13:20:52 10° N
ATLAS 5 CENTAUR R/B 2.5 13:15:40 10° S 13:19:11 43° ESE 13:22:53 10° NE
Cosmos 1354 Rocket 3.9 13:16:08 10° SSW 13:21:22 84° WNW 13:26:41 10° NNE
FALCON 9 R/B 4.0 13:05:29 20° W 13:24:25 84° N 13:31:07 10° E
COSMO-SKYMED 1 2.5 13:21:49 10° S 13:26:06 63° WSW 13:30:25 10° NNW
Cosmos 1328 Rocket 3.8 13:21:47 10° N 13:26:09 71° E 13:30:27 10° SSE
H-2A R/B 3.6 13:23:21 10° NNW 13:26:29 26° WNW 13:29:39 10° SW
ADEOS 3.5 13:21:47 10° N 13:27:01 81° WNW 13:32:13 10° SSW
CZ-4C R/B 3.1 13:25:45 10° SSE 13:28:53 65° ENE 13:31:59 10° N
CZ-2C R/B 3.1 13:31:22 10° NNE 13:36:18 79° ESE 13:41:29 10° S
Gbstr 26 Del rocket 3.4 13:33:47 19° WNW 13:36:18 44° SW 13:40:39 10° SSE
ATLAS 3B R/B 3.1 13:31:55 10° SSW 13:38:15 65° ESE 13:44:52 10° NE
SMAP 4.5 13:34:46 10° NNE 13:39:11 42° E 13:43:34 10° S
CZ-4B R/B 2.6 13:37:33 10° NNE 13:41:07 84° ESE 13:44:43 10° S
Cosmos 1408 Rocket 3.4 13:39:01 10° SSW 13:43:18 73° W 13:47:36 10° N
Cosmos 2369 Rocket 3.4 13:43:00 10° WSW 13:46:54 19° WNW 13:50:50 10° NNW
OAO 3 Rocket 4.3 13:43:59 12° W 13:48:02 33° SSW 13:52:26 10° SE
OE (NEXTSAT) 4.4 13:45:47 15° WNW 13:48:31 62° SW 13:51:53 10° SE
Uosat 12 SS-18 rocket 4.5 13:43:55 10° SW 13:48:37 64° WNW 13:54:27 10° NNE
Centaur D-1A AC-35 3.5 13:46:22 10° WSW 13:50:05 33° S 13:53:49 10° ESE
Cosmos 1743 Rocket 4.0 13:46:34 10° S 13:50:55 66° E 13:55:16 10° NNE
FengYun 1-2 T 4.4 13:52:12 10° NNE 13:57:43 82° ESE 14:03:11 10° S
H-2A R/B 3.9 13:56:43 10° NNE 14:01:10 34° E 14:05:37 10° SSE
USA 215 3.6 13:54:43 10° SE 14:01:11 69° NE 14:07:39 10° NW
FAST Rocket 3.8 13:58:42 10° S 14:01:31 86° W 14:04:09 10° N
Cosmos 2279 Rocket 4.3 13:56:20 10° NNW 14:02:07 43° W 14:07:55 10° SSW
Nadezhda 4 Rocket 4.0 13:58:36 10° SSW 14:04:40 63° W 14:10:48 10° N
DMSP B5D2-2 4.1 14:00:20 10° S 14:05:32 75° WSW 14:10:46 10° NNW
Cosmos 1515 Rocket 3.5 14:02:31 10° N 14:06:52 72° W 14:11:09 10° S
SJ 16-02 1.4 14:03:08 10° SSW 14:07:26 58° WNW 14:11:46 10° N
Cosmos 1340 Rocket 2.7 14:04:40 10° SSW 14:08:34 68° W 14:12:30 10° N
SL-27 R/B 3.5 14:05:16 10° N 14:08:43 48° ENE 14:12:07 10° SSE
Meteor 1-20 Rocket 4.4 14:06:39 10° S 14:12:09 82° E 14:17:47 10° N
